| time (UTC) | temp F | wind direction | speed knots | gust knots | rain 1hr in | rain 24hr in | rain mn in | humidity % | barometer mb |
| 20260504160222 | 62 | 191 | 2.6 | 3.5 | 0.00 | 0.00 | 0.00 | 38 | 1008.3 |
| 20260504150653 | 63 | 262 | 2.6 | 3.5 | 0.00 | 0.00 | 0.00 | 42 | 1008.8 |
| 20260504150150 | 62 | 227 | 1.7 | 2.6 | 0.00 | 0.00 | 0.00 | 41 | 1008.8 |
| 20260504141119 | 57 | 219 | 2.6 | 3.5 | 0.00 | 0.00 | 0.00 | 46 | 1009.0 |
| 20260504140615 | 58 | 223 | 1.7 | 2.6 | 0.00 | 0.00 | 0.00 | 46 | 1009.0 |
| 20260504140111 | 58 | 279 | 2.6 | 3.5 | 0.00 | 0.00 | 0.00 | 46 | 1009.0 |
| 20260504130539 | 56 | 30 | 0.0 | 0.9 | 0.00 | 0.00 | 0.00 | 51 | 1009.8 |
| 20260504110427 | 42 | 148 | 0.0 | 0.0 | 0.00 | 0.00 | 0.00 | 76 | 1009.9 |
| 20260504100344 | 41 | 147 | 0.0 | 0.9 | 0.00 | 0.00 | 0.00 | 74 | 1009.4 |
| 20260504081737 | 40 | 178 | 0.0 | 0.0 | 0.00 | 0.00 | 0.00 | 76 | 1009.6 |
| 20260504081233 | 40 | 178 | 0.0 | 0.0 | 0.00 | 0.00 | 0.00 | 75 | 1009.6 |
| 20260504080730 | 39 | 157 | 0.0 | 0.0 | 0.00 | 0.00 | 0.00 | 76 | 1009.5 |
| 20260504080226 | 39 | 157 | 0.9 | 0.9 | 0.00 | 0.00 | 0.00 | 77 | 1009.5 |
| 20260504070153 | 39 | 157 | 0.0 | 0.0 | 0.00 | 0.00 | 0.00 | 75 | 1009.4 |
| 20260504045618 | 42 | 157 | 0.9 | 0.9 | 0.00 | 0.00 | 0.00 | 67 | 1009.4 |
| 20260504045112 | 42 | 157 | 0.9 | 0.9 | 0.00 | 0.00 | 0.00 | 67 | 1009.4 |
| 20260504044611 | 42 | 157 | 0.9 | 0.9 | 0.00 | 0.00 | 0.00 | 67 | 1009.4 |
| 20260504044107 | 42 | 157 | 0.0 | 0.0 | 0.00 | 0.00 | 0.00 | 69 | 1009.2 |
| 20260504043604 | 40 | 157 | 0.9 | 0.9 | 0.00 | 0.00 | 0.00 | 72 | 1009.3 |
| 20260504043101 | 40 | 157 | 0.9 | 0.9 | 0.00 | 0.00 | 0.00 | 73 | 1009.2 |
| 20260504042558 | 40 | 157 | 1.7 | 1.7 | 0.00 | 0.00 | 0.00 | 74 | 1009.3 |
| 20260504042055 | 39 | 157 | 0.0 | 0.0 | 0.00 | 0.00 | 0.00 | 75 | 1009.0 |
| 20260504041551 | 39 | 157 | 0.0 | 0.0 | 0.00 | 0.00 | 0.00 | 76 | 1008.9 |
| 20260504041048 | 39 | 157 | 0.0 | 0.0 | 0.00 | 0.00 | 0.00 | 76 | 1009.1 |
| 20260504040545 | 39 | 157 | 0.0 | 0.0 | 0.00 | 0.00 | 0.00 | 76 | 1009.0 |
| 20260504040041 | 39 | 157 | 0.9 | 0.9 | 0.00 | 0.00 | 0.00 | 76 | 1009.0 |
| 20260504035538 | 40 | 157 | 0.0 | 0.9 | 0.00 | 0.00 | 0.00 | 75 | 1008.9 |
| 20260504035034 | 40 | 157 | 0.0 | 0.0 | 0.00 | 0.00 | 0.00 | 75 | 1008.8 |
| 20260504034533 | 40 | 157 | 0.0 | 0.9 | 0.00 | 0.00 | 0.00 | 75 | 1009.0 |
| 20260504034029 | 40 | 157 | 0.0 | 0.9 | 0.00 | 0.00 | 0.00 | 76 | 1008.9 |
| 20260504033528 | 40 | 157 | 0.9 | 0.9 | 0.00 | 0.00 | 0.00 | 76 | 1008.9 |
| 20260504033024 | 40 | 157 | 0.0 | 0.0 | 0.00 | 0.00 | 0.00 | 75 | 1008.9 |
| 20260504032521 | 40 | 157 | 0.9 | 0.9 | 0.00 | 0.00 | 0.00 | 75 | 1008.9 |
| 20260504032018 | 40 | 157 | 0.0 | 0.9 | 0.00 | 0.00 | 0.00 | 74 | 1008.9 |
| 20260504031515 | 40 | 157 | 0.0 | 0.9 | 0.00 | 0.00 | 0.00 | 75 | 1009.0 |
| 20260504031011 | 41 | 157 | 0.0 | 0.0 | 0.00 | 0.00 | 0.00 | 74 | 1008.9 |
| 20260504030509 | 41 | 157 | 0.0 | 0.9 | 0.00 | 0.00 | 0.00 | 73 | 1008.8 |
| 20260504030004 | 41 | 157 | 0.0 | 0.0 | 0.00 | 0.00 | 0.00 | 74 | 1009.1 |
| 20260504025501 | 41 | 157 | 0.9 | 0.9 | 0.00 | 0.00 | 0.00 | 74 | 1009.0 |
| 20260504024958 | 41 | 157 | 0.0 | 0.0 | 0.00 | 0.00 | 0.00 | 73 | 1009.2 |
| 20260504024455 | 41 | 157 | 0.0 | 0.9 | 0.00 | 0.00 | 0.00 | 73 | 1008.9 |
| 20260504023953 | 41 | 157 | 0.9 | 0.9 | 0.00 | 0.00 | 0.00 | 72 | 1008.9 |
| 20260504023449 | 41 | 157 | 0.0 | 0.9 | 0.00 | 0.00 | 0.00 | 73 | 1009.1 |
| 20260504022944 | 41 | 157 | 0.0 | 0.0 | 0.00 | 0.00 | 0.00 | 71 | 1009.0 |
| 20260504022441 | 41 | 157 | 0.9 | 0.9 | 0.00 | 0.00 | 0.00 | 70 | 1009.1 |
| 20260504021938 | 42 | 157 | 0.0 | 0.9 | 0.00 | 0.00 | 0.00 | 69 | 1009.0 |
| 20260504021435 | 42 | 157 | 0.9 | 0.9 | 0.00 | 0.00 | 0.00 | 68 | 1009.2 |
| 20260504020932 | 42 | 157 | 0.9 | 0.9 | 0.00 | 0.00 | 0.00 | 68 | 1009.0 |
| 20260504020429 | 42 | 157 | 0.9 | 0.9 | 0.00 | 0.00 | 0.00 | 68 | 1009.2 |
| 20260504015925 | 42 | 157 | 0.0 | 0.9 | 0.00 | 0.00 | 0.00 | 67 | 1009.1 |
| 20260504015421 | 42 | 157 | 0.9 | 0.9 | 0.00 | 0.00 | 0.00 | 67 | 1009.2 |
| 20260504014917 | 42 | 157 | 0.0 | 0.0 | 0.00 | 0.00 | 0.00 | 69 | 1009.0 |
| 20260504014414 | 43 | 157 | 0.0 | 0.0 | 0.00 | 0.00 | 0.00 | 69 | 1009.0 |
| 20260504013911 | 42 | 187 | 0.9 | 0.9 | 0.00 | 0.00 | 0.00 | 67 | 1009.2 |
| 20260504013409 | 43 | 187 | 0.0 | 0.0 | 0.00 | 0.00 | 0.00 | 66 | 1009.1 |
| 20260504012905 | 43 | 187 | 0.0 | 0.9 | 0.00 | 0.00 | 0.00 | 65 | 1009.0 |
| 20260504012403 | 43 | 187 | 0.0 | 0.9 | 0.00 | 0.00 | 0.00 | 65 | 1008.9 |
| 20260504011900 | 43 | 187 | 0.0 | 0.9 | 0.00 | 0.00 | 0.00 | 65 | 1008.9 |
| 20260504011357 | 44 | 187 | 0.0 | 0.0 | 0.00 | 0.00 | 0.00 | 65 | 1008.7 |
| 20260504010853 | 44 | 187 | 0.9 | 0.9 | 0.00 | 0.00 | 0.00 | 64 | 1008.6 |
| 20260504010349 | 44 | 187 | 0.9 | 0.9 | 0.00 | 0.00 | 0.00 | 63 | 1008.9 |
| 20260504005845 | 44 | 187 | 0.0 | 0.0 | 0.00 | 0.00 | 0.00 | 63 | 1008.8 |
| 20260504005342 | 45 | 187 | 0.0 | 0.9 | 0.00 | 0.00 | 0.00 | 63 | 1008.6 |
| 20260504004839 | 45 | 187 | 0.9 | 0.9 | 0.00 | 0.00 | 0.00 | 64 | 1008.7 |
| 20260504004337 | 45 | 187 | 0.0 | 0.9 | 0.00 | 0.00 | 0.00 | 63 | 1008.9 |
| 20260504003833 | 46 | 187 | 0.0 | 0.9 | 0.00 | 0.00 | 0.00 | 61 | 1008.6 |
| 20260504003330 | 46 | 187 | 0.0 | 0.0 | 0.00 | 0.00 | 0.00 | 61 | 1008.5 |
| 20260504002827 | 46 | 187 | 0.0 | 0.0 | 0.00 | 0.00 | 0.00 | 59 | 1008.5 |
| 20260504002324 | 47 | 187 | 0.0 | 0.0 | 0.00 | 0.00 | 0.00 | 58 | 1008.4 |
| 20260504001822 | 47 | 187 | 0.0 | 0.0 | 0.00 | 0.00 | 0.00 | 57 | 1008.2 |
| 20260504001319 | 48 | 187 | 0.0 | 0.9 | 0.00 | 0.00 | 0.00 | 56 | 1008.4 |
| 20260504000815 | 48 | 187 | 0.0 | 0.0 | 0.00 | 0.00 | 0.00 | 55 | 1008.2 |
| 20260504000312 | 49 | 188 | 0.0 | 0.9 | 0.00 | 0.00 | 0.00 | 53 | 1008.2 |
| 20260503235810 | 49 | 189 | 0.0 | 0.9 | 0.00 | 0.00 | 0.00 | 51 | 1008.4 |
| 20260503235307 | 50 | 189 | 0.0 | 0.0 | 0.00 | 0.00 | 0.00 | 50 | 1008.2 |
| 20260503234805 | 51 | 190 | 0.0 | 0.0 | 0.00 | 0.00 | 0.00 | 50 | 1008.0 |
| 20260503234303 | 51 | 178 | 0.9 | 0.9 | 0.00 | 0.00 | 0.00 | 48 | 1008.2 |
| 20260503233800 | 52 | 194 | 0.9 | 0.9 | 0.00 | 0.00 | 0.00 | 47 | 1007.9 |
| 20260503233255 | 52 | 212 | 1.7 | 2.6 | 0.00 | 0.00 | 0.00 | 46 | 1008.0 |
| 20260503232753 | 52 | 198 | 0.9 | 0.9 | 0.00 | 0.00 | 0.00 | 46 | 1007.9 |
| 20260503232250 | 52 | 220 | 1.7 | 1.7 | 0.00 | 0.00 | 0.00 | 45 | 1008.1 |
| 20260503231748 | 52 | 50 | 2.6 | 3.5 | 0.00 | 0.00 | 0.00 | 44 | 1008.1 |
| 20260503231245 | 53 | 203 | 1.7 | 1.7 | 0.00 | 0.00 | 0.00 | 45 | 1007.8 |
| 20260503230740 | 53 | 217 | 2.6 | 2.6 | 0.00 | 0.00 | 0.00 | 44 | 1007.9 |
| 20260503230238 | 53 | 153 | 2.6 | 3.5 | 0.00 | 0.00 | 0.00 | 44 | 1008.0 |
| 20260503225736 | 53 | 192 | 0.9 | 1.7 | 0.00 | 0.00 | 0.00 | 43 | 1008.0 |
| 20260503225235 | 53 | 238 | 3.5 | 6.1 | 0.00 | 0.00 | 0.00 | 42 | 1007.8 |
| 20260503224732 | 54 | 257 | 2.6 | 3.5 | 0.00 | 0.00 | 0.00 | 42 | 1007.8 |
| 20260503224230 | 54 | 156 | 0.9 | 0.9 | 0.00 | 0.00 | 0.00 | 42 | 1007.9 |
| 20260503223728 | 54 | 83 | 3.5 | 5.2 | 0.00 | 0.00 | 0.00 | 40 | 1007.9 |
| 20260503223225 | 54 | 271 | 5.2 | 7.8 | 0.00 | 0.00 | 0.00 | 40 | 1007.6 |
| 20260503222721 | 54 | 260 | 2.6 | 3.5 | 0.00 | 0.00 | 0.00 | 41 | 1008.0 |
| 20260503222219 | 54 | 205 | 0.9 | 0.9 | 0.00 | 0.00 | 0.00 | 41 | 1007.8 |
| 20260503221718 | 54 | 260 | 4.3 | 6.1 | 0.00 | 0.00 | 0.00 | 38 | 1007.6 |
| 20260503221215 | 54 | 229 | 2.6 | 5.2 | 0.00 | 0.00 | 0.00 | 40 | 1007.6 |
| 20260503220711 | 54 | 24 | 0.9 | 0.9 | 0.00 | 0.00 | 0.00 | 39 | 1007.5 |
| 20260503220208 | 54 | 203 | 5.2 | 7.0 | 0.00 | 0.00 | 0.00 | 37 | 1007.6 |
| 20260503215705 | 55 | 199 | 0.9 | 1.7 | 0.00 | 0.00 | 0.00 | 38 | 1007.6 |
| 20260503215202 | 55 | 179 | 1.7 | 3.5 | 0.00 | 0.00 | 0.00 | 38 | 1007.3 |
| 20260503214700 | 55 | 228 | 5.2 | 7.0 | 0.00 | 0.00 | 0.00 | 36 | 1007.4 |
| 20260503214155 | 56 | 352 | 3.5 | 5.2 | 0.00 | 0.00 | 0.00 | 35 | 1007.4 |
| 20260503213649 | 57 | 261 | 6.1 | 7.8 | 0.00 | 0.00 | 0.00 | 36 | 1007.2 |
| 20260503213146 | 56 | 268 | 5.2 | 7.0 | 0.00 | 0.00 | 0.00 | 35 | 1007.4 |
| 20260503212643 | 55 | 248 | 2.6 | 3.5 | 0.00 | 0.00 | 0.00 | 35 | 1007.3 |
| 20260503212140 | 56 | 237 | 3.5 | 3.5 | 0.00 | 0.00 | 0.00 | 35 | 1007.2 |
| 20260503211638 | 56 | 203 | 1.7 | 2.6 | 0.00 | 0.00 | 0.00 | 37 | 1007.3 |
| 20260503211133 | 57 | 222 | 5.2 | 6.1 | 0.00 | 0.00 | 0.00 | 33 | 1007.5 |
| 20260503210630 | 56 | 268 | 1.7 | 2.6 | 0.00 | 0.00 | 0.00 | 35 | 1007.0 |
| 20260503210126 | 56 | 221 | 1.7 | 2.6 | 0.00 | 0.00 | 0.00 | 35 | 1007.3 |
| 20260503205622 | 56 | 249 | 3.5 | 5.2 | 0.00 | 0.00 | 0.00 | 35 | 1007.2 |
| 20260503205119 | 56 | 199 | 1.7 | 2.6 | 0.00 | 0.00 | 0.00 | 35 | 1007.2 |
| 20260503204616 | 55 | 183 | 3.5 | 3.5 | 0.00 | 0.00 | 0.00 | 34 | 1007.3 |
| 20260503204113 | 57 | 216 | 6.1 | 7.8 | 0.00 | 0.00 | 0.00 | 34 | 1007.4 |
| 20260503203610 | 56 | 241 | 2.6 | 5.2 | 0.00 | 0.00 | 0.00 | 35 | 1007.2 |
| 20260503203107 | 58 | 239 | 3.5 | 5.2 | 0.00 | 0.00 | 0.00 | 34 | 1007.0 |
| 20260503202605 | 57 | 261 | 4.3 | 5.2 | 0.00 | 0.00 | 0.00 | 34 | 1007.2 |
| 20260503202103 | 57 | 61 | 3.5 | 3.5 | 0.00 | 0.00 | 0.00 | 33 | 1007.4 |
| 20260503201600 | 57 | 212 | 3.5 | 5.2 | 0.00 | 0.00 | 0.00 | 34 | 1007.5 |
| 20260503201057 | 55 | 62 | 3.5 | 6.1 | 0.00 | 0.00 | 0.00 | 34 | 1007.9 |
| 20260503200548 | 55 | 278 | 1.7 | 3.5 | 0.00 | 0.00 | 0.00 | 37 | 1007.5 |
| 20260503200044 | 56 | 313 | 5.2 | 7.0 | 0.00 | 0.00 | 0.00 | 33 | 1007.6 |
| 20260503195542 | 57 | 239 | 7.8 | 8.7 | 0.00 | 0.00 | 0.00 | 32 | 1007.5 |
| 20260503195038 | 57 | 277 | 3.5 | 6.1 | 0.00 | 0.00 | 0.00 | 35 | 1007.5 |
| 20260503194536 | 56 | 188 | 7.0 | 8.7 | 0.00 | 0.00 | 0.00 | 35 | 1007.6 |
| 20260503194035 | 56 | 239 | 1.7 | 2.6 | 0.00 | 0.00 | 0.00 | 36 | 1007.9 |
| 20260503193532 | 57 | 260 | 3.5 | 3.5 | 0.00 | 0.00 | 0.00 | 32 | 1007.6 |
| 20260503193027 | 56 | 204 | 7.8 | 13.0 | 0.00 | 0.00 | 0.00 | 34 | 1007.7 |
| 20260503192524 | 55 | 174 | 2.6 | 3.5 | 0.00 | 0.00 | 0.00 | 34 | 1007.8 |
| 20260503192020 | 55 | 211 | 4.3 | 7.0 | 0.00 | 0.00 | 0.00 | 35 | 1007.9 |
| 20260503191517 | 52 | 58 | 1.7 | 1.7 | 0.00 | 0.00 | 0.00 | 39 | 1007.8 |
| 20260503191014 | 54 | 212 | 3.5 | 3.5 | 0.00 | 0.00 | 0.00 | 38 | 1008.2 |
| 20260503190511 | 55 | 250 | 3.5 | 5.2 | 0.00 | 0.00 | 0.00 | 34 | 1008.1 |
| 20260503190008 | 55 | 233 | 7.8 | 11.3 | 0.00 | 0.00 | 0.00 | 33 | 1007.9 |
| 20260503185503 | 55 | 276 | 2.6 | 3.5 | 0.00 | 0.00 | 0.00 | 36 | 1008.1 |
| 20260503184958 | 54 | 269 | 3.5 | 5.2 | 0.00 | 0.00 | 0.00 | 35 | 1008.1 |
| 20260503184454 | 56 | 235 | 4.3 | 7.0 | 0.00 | 0.00 | 0.00 | 33 | 1008.2 |
| 20260503183951 | 55 | 15 | 3.5 | 5.2 | 0.00 | 0.00 | 0.00 | 37 | 1008.1 |
| 20260503183448 | 54 | 266 | 4.3 | 7.0 | 0.00 | 0.00 | 0.00 | 34 | 1008.3 |
| 20260503182944 | 53 | 223 | 4.3 | 6.1 | 0.00 | 0.00 | 0.00 | 37 | 1007.9 |
| 20260503182443 | 53 | 214 | 0.9 | 1.7 | 0.00 | 0.00 | 0.00 | 35 | 1008.1 |
| 20260503181940 | 53 | 211 | 0.9 | 1.7 | 0.00 | 0.00 | 0.00 | 38 | 1008.5 |
| 20260503181437 | 53 | 61 | 2.6 | 3.5 | 0.00 | 0.00 | 0.00 | 37 | 1008.5 |
| 20260503180933 | 52 | 192 | 0.9 | 0.9 | 0.00 | 0.00 | 0.00 | 42 | 1008.5 |
| 20260503180432 | 52 | 47 | 1.7 | 2.6 | 0.00 | 0.00 | 0.00 | 36 | 1008.4 |
| 20260503175928 | 51 | 210 | 7.0 | 7.8 | 0.00 | 0.00 | 0.00 | 37 | 1008.6 |
| 20260503175426 | 50 | 226 | 4.3 | 5.2 | 0.00 | 0.00 | 0.00 | 40 | 1008.5 |
| 20260503174922 | 52 | 243 | 2.6 | 2.6 | 0.00 | 0.00 | 0.00 | 41 | 1008.5 |
| 20260503174420 | 54 | 199 | 0.9 | 0.9 | 0.00 | 0.00 | 0.00 | 37 | 1008.5 |
| 20260503173914 | 52 | 126 | 0.9 | 1.7 | 0.00 | 0.00 | 0.00 | 46 | 1008.5 |
| 20260503173411 | 49 | 318 | 0.9 | 1.7 | 0.00 | 0.00 | 0.00 | 39 | 1008.5 |
| 20260503172908 | 50 | 242 | 2.6 | 3.5 | 0.00 | 0.00 | 0.00 | 40 | 1008.9 |
| 20260503172406 | 51 | 327 | 3.5 | 5.2 | 0.00 | 0.00 | 0.00 | 39 | 1008.8 |
| 20260503171901 | 50 | 234 | 3.5 | 5.2 | 0.00 | 0.00 | 0.00 | 42 | 1008.7 |
| 20260503171358 | 50 | 194 | 0.9 | 1.7 | 0.00 | 0.00 | 0.00 | 44 | 1008.6 |
| 20260503170856 | 49 | 53 | 1.7 | 1.7 | 0.00 | 0.00 | 0.00 | 46 | 1008.6 |
| 20260503170352 | 50 | 152 | 1.7 | 1.7 | 0.00 | 0.00 | 0.00 | 38 | 1008.9 |